Regional Weather Roundup
Issued by NWS

Home | Current Version | Previous Version | Graphics & Text | Print | Product List | Glossary On
Versions: 1 2 3 4 5 6 7 8 9 10 11 12 13 14 15 16 17 18 19 20 21 22 23 24 25 26 27 28 29 30 31 32 33 34 35 36 37 38 39 40 41 42 43 44 45 46 47 48 49 50
000
ASUS43 KMPX 231301
RWRMN
WEATHER ROUNDUP FOR MINNESOTA
NATIONAL WEATHER SERVICE TWIN CITIES/CHANHASSEN MN
800 AM CDT WED MAY 23 2018


NOTE: "FAIR" INDICATES FEW OR NO CLOUDS BELOW 12,000 FEET WITH NO
SIGNIFICANT WEATHER AND/OR OBSTRUCTIONS TO VISIBILITY. N/A MEANS
CURRENT SKY AND/OR WEATHER CONDITIONS ARE NOT AVAILABLE.

MNZ060>063-068>070-231400-
   Twin Cities Metro

CITY           SKY/WX    TMP DP  RH WIND       PRES   REMARKS
TWIN CITIES    PTSUNNY   65  60  84 SE9       30.12R
ST PAUL        FAIR      65  59  81 SE8       30.12S
CRYSTAL        FAIR      66  58  75 SE10      30.10R
BLAINE         PTSUNNY   66  63  88 S12       30.11S
LAKEVILLE      FAIR      63  61  94 SE5       30.12R
EDEN PRAIRIE   FAIR      65  59  81 SE7       30.10R
SOUTH ST PAUL  FAIR      64  60  86 SE6       30.12S
LAKE ELMO      FAIR      64  61  88 SE3       30.14R
$$
MNZ001>005-007-008-013>017-022>024-027-028-231400-
   Northwest Minnesota

CITY           SKY/WX    TMP DP  RH WIND       PRES   REMARKS
BEMIDJI        FAIR      61  56  83 E5        30.11R
HALLOCK        FAIR      68  57  68 S9        30.04R
ROSEAU         FAIR      66  59  77 S7        30.08R
WARROAD        FAIR      64  59  82 CALM      30.09R
THIEF RVR FALL FAIR      66  56  70 SE10      30.07R
CROOKSTON      FAIR      66  57  72 S9        30.05S
FOSSTON        FAIR      64  57  77 SE5       30.08R
DETROIT LAKES  FAIR      63  55  77 SE7       30.09R
MOORHEAD       FAIR      68  57  68 S15       30.05S
PARK RAPIDS    FAIR      63  57  81 SE6       30.10R
MAHNOMEN       FAIR      65  57  76 SE5       30.07R
$$
MNZ006-009>011-018-025>026-231400-
   North Central Minnesota

CITY           SKY/WX    TMP DP  RH WIND       PRES   REMARKS
BAUDETTE       FAIR      64  57  78 S3        30.09S
FLAG ISLAND    FAIR      61  55  82 CALM      30.08S
INTL FALLS     FAIR      63  56  78 CALM      30.12R
WASKISH          N/A     64  57  77 CALM      30.11R
BIG FORK       FAIR      61  57  88 CALM      30.13S
LONGVILLE      FAIR      61  57  88 CALM      30.12R
GRAND RAPIDS   FAIR      61  56  83 SE5       30.16S
CRANE LAKE     FAIR      57  54  88 CALM      30.14F
ORR            FAIR      63  54  72 CALM      30.12R
COOK           FAIR      64  55  72 SW5       30.15R
WALKER         FAIR      61  56  85 E3        30.12R
$$
MNZ012-019>021-037-231400-
   Northeast Minnesota

CITY           SKY/WX    TMP DP  RH WIND       PRES   REMARKS
DULUTH         FAIR      67  56  67 W7        30.15R
ELY            FAIR      63  54  72 CALM      30.15S
HIBBING        FAIR      58  53  84 CALM      30.15R
EVELETH        FAIR      59  55  88 W3        30.16R
DULUTH HARBOR  FAIR      64  59  82 SW6       30.15R
TWO HARBORS    FAIR      72  61  68 SW7       30.12R
SILVER BAY     FAIR      66  57  72 CALM      30.12R
G MARAIS ARPRT FAIR      66  46  48 CALM      30.16R
$$
MNZ029>031-032-039>041-046>048-054>057-064-231400-
   West Central Minnesota

CITY           SKY/WX    TMP DP  RH WIND       PRES   REMARKS
FERGUS FALLS   FAIR      66  59  77 SE10      30.04R
WHEATON        CLOUDY    66  55  68 S12       30.08F
MORRIS         LGT RAIN  64  59  82 W8G20     30.09R
ALEXANDRIA     FAIR      66  59  78 SE7       30.10R
ELBOW LAKE     FAIR      64  60  85 S10       30.09R
WADENA         FAIR      61  57  88 S7        30.09R
GLENWOOD       FAIR      63  61  94 SE6       30.09S
APPLETON       RAIN      64  59  82 E8        30.04F
BENSON         CLOUDY    66  61  82 SE5       30.07F
ORTONVILLE     LGT RAIN  63  59  88 CALM      30.05F
MADISON        DRIZZLE   66  66 100 CALM      30.05S
WILLMAR        FAIR      64  61  88 E8        30.08F
$$
MNZ033>034-036-042>043-049>051-058-059-231400-
   Central Minnesota

CITY           SKY/WX    TMP DP  RH WIND       PRES   REMARKS
ST CLOUD       FAIR      65  59  81 SE6       30.09S
SAUK CENTRE    FAIR      63  59  87 E5        30.09S
PAYNESVILLE    FAIR      64  60  88 E6        30.08F
PINE RIVER     FAIR      59  55  88 SE5       30.14R
BRAINERD       FAIR      64  55  72 SE3       30.12R
STAPLES        FAIR      61  57  88 S6        30.10R
LONG PRAIRIE   FAIR      63  59  88 E7        30.10S
LITTLE FALLS   FAIR      61  59  94 SE5       30.10S
LITCHFIELD     FAIR      66  63  88 E8        30.07F
BUFFALO        FAIR      64  58  80 SE6       30.11S
MAPLE LAKE     FAIR      65  61  87 SE5       30.10S
HUTCHINSON     FAIR      65  62  89 E8        30.07F
$$
MNZ037-044-045-052-053-231400-
   East Central Minnesota

CITY           SKY/WX    TMP DP  RH WIND       PRES   REMARKS
PRINCETON      FAIR      64  63  94 E3        30.11S
MORA           FAIR      55  55 100 CALM      30.14R
CAMBRIDGE      FAIR      68  57  68 SE7       30.12R
RUSH CITY      FAIR      58  57  95 CALM      30.13R
MOOSE LAKE     FAIR      55  55 100 CALM      30.13R
HINCKLEY       PTSUNNY   59  57  94 CALM      30.14R
CLOQUET        FAIR      64  55  72 CALM      30.15R
MCGREGOR       PTSUNNY   59  57  94 CALM      30.14R
$$
MNZ071>073-080-081-089-090-097-098-231400-
   Southwest Minnesota

CITY           SKY/WX    TMP DP  RH WIND       PRES   REMARKS
MONTEVIDEO     CLOUDY    66  61  82 N6        30.05R THUNDER
GRANITE FALLS  CLOUDY    66  63  90 E8        30.06R
CANBY          CLOUDY    66  62  86 E5        30.07R
MARSHALL       CLOUDY    65  61  87 NW18      30.04R THUNDER
REDWOOD FALLS  CLOUDY    64  62  93 S8        30.04S THUNDER
OLIVIA         CLOUDY    68  63  83 SE9       30.04F
PIPESTONE      CLOUDY    68  61  77 S10G22    30.04R THUNDER
WINDOM         PTSUNNY   66  48  52 SE13      30.08S
WORTHINGTON      N/A     67  58  72 SE17      30.08S
JACKSON        CLOUDY    64  55  72 SE13      30.11S
TRACY          CLOUDY    66  61  84 S15G24    30.01F
SLAYTON        CLOUDY    64  59  85 SE17      30.06F
$$
MNZ065>067-074>077-082>085-091>093-231400-
   South Central Minnesota

CITY           SKY/WX    TMP DP  RH WIND       PRES   REMARKS
MANKATO        LGT RAIN  63  62  97 SE12      30.07F
NEW ULM        LGT RAIN  64  61  88 S12       30.05S
ST JAMES         N/A     64  61  88 SE15      30.09F
FAIRMONT       CLOUDY    64  60  87 S15       30.11F
GLENCOE        FAIR      67  61  82 SE7       30.07F
FARIBAULT      FAIR      64  61  88 CALM      30.12S
OWATONNA       FAIR      64  61  88 SE10      30.12S
WASECA         LGT RAIN  63  59  88 SE9       30.13S
ALBERT LEA     FAIR      63  61  94 S9        30.13R FOG
$$
MNZ078>079-086>088-094>096-231400-
   Southeast Minnesota

CITY           SKY/WX    TMP DP  RH WIND       PRES   REMARKS
ROCHESTER      LGT RAIN  62  60  93 N3        30.18R
RED WING       CLOUDY    64  57  77 SE5       30.14S
STANTON        FAIR      65  59  82 S7        30.11S
DODGE CENTER   FAIR      63  61  94 S12       30.14F
WINONA         CLOUDY    55  55 100 CALM      30.15S
AUSTIN         LGT RAIN  63  61  94 SE7       30.14F
PRESTON        PTSUNNY   60  58  93 S8        30.18S FOG
$$
ABBREVIATIONS USED IN REMARKS
   TC - TEMPERATURES IN CELSIUS
  WCI - WIND CHILL INDEX
   HX - HEAT INDEX
  VSB - VISIBILITY
$$




USA.gov is the U.S. government's official web portal to all federal, state and local government web resources and services.